Temp
76 79 81 82 82 82 83 82 83 83 83 83 83 83 83 83 83 83 83 83 84 84 84 84 84 84 84 84 84 83 83 83 83 83 83 83 83 83 83 83 84 84 82
82 81 81 82 82 83 82 82 83 83 83 83 83 83 83 83 83 83 83 84 84 84 84 84 84 84 84 84 84 84 83 83 83 84 84 84 84 83 83 83 84 82 82
86 85 85 82 82 82 83 83 83 83 83 83 83 84 84 84 84 84 84 84 84 84 84 84 84 84 84 84 84 84 84 83 83 84 83 83 83 84 83 83 83 82 82
90 89 87 81 82 82 83 83 83 84 84 84 84 84 84 84 84 84 84 84 84 84 84 84 84 84 84 84 84 84 84 83 84 84 82 85 87 83 83 82 82 82 82
89 88 84 82 82 83 83 83 84 84 84 84 84 84 84 84 84 84 84 84 84 84 84 84 84 84 84 84 84 84 84 84 84 85 85 82 81 84 82 82 83 82 84
90 88 83 83 84 84 84 84 84 84 84 84 84 84 84 85 85 85 85 85 85 85 85 85 84 84 84 84 84 84 84 84 85 84 83 83 80 83 83 84 83 83 82
89 87 85 83 83 84 84 84 84 84 84 84 84 84 85 85 85 85 85 85 85 85 85 85 85 84 84 84 84 84 84 84 84 82 85 82 80 82 83 83 82 83 82
90 89 86 84 84 84 84 84 84 84 84 84 84 84 85 85 85 85 85 85 85 86 85 85 85 84 84 84 84 84 84 84 87 80 83 81 80 82 83 83 82 82 82
91 89 86 86 85 84 84 84 84 84 84 84 84 84 84 85 85 85 85 85 85 85 85 85 85 85 84 84 84 84 84 84 82 80 82 79 81 83 83 83 82 82 82
90 90 86 85 86 84 84 84 84 84 84 84 84 84 85 85 85 86 85 85 85 85 85 85 85 85 85 85 85 85 85 83 83 76 82 79 81 83 83 82 82 82 82
92 91 90 89 87 86 86 86 84 84 84 84 85 84 84 80 81 88 86 85 85 85 85 85 85 85 85 85 84 84 83 74 79 75 81 79 81 83 83 83 82 82 82
89 90 91 91 90 89 92 83 85 86 86 85 86 85 85 81 79 89 89 87 86 85 85 84 85 83 85 87 86 85 75 82 76 77 79 80 81 84 83 82 82 82 82
89 89 92 89 89 90 85 85 87 88 88 87 86 81 86 86 87 86 83 86 79 86 84 82 77 78 79 87 84 87 87 87 75 75 81 80 81 83 84 82 82 82 82
89 91 90 88 88 85 85 88 90 90 89 87 89 88 86 87 86 86 82 85 82 82 83 83 75 76 86 87 87 85 87 84 84 84 81 80 81 83 83 83 82 82 82
89 92 90 90 87 89 88 89 87 87 87 92 87 87 87 86 83 86 84 85 85 85 84 83 83 81 78 84 86 86 85 85 87 86 80 81 81 82 83 83 83 82 82
92 93 93 91 88 89 88 89 87 89 90 87 87 85 87 88 84 83 83 83 85 82 84 84 83 83 83 85 84 85 84 85 86 86 85 81 81 81 82 83 83 83 83
93 94 92 91 90 87 87 88 88 89 93 88 86 85 87 86 87 86 83 84 84 83 83 84 84 83 82 85 84 85 85 85 86 85 85 83 82 81 81 82 82 81 82
93 91 92 95 91 87 86 87 88 89 84 85 84 86 86 84 86 85 84 84 81 80 81 78 81 79 79 82 80 82 83 85 86 85 85 85 84 86 82 82 82 82 82
93 91 90 91 91 87 86 87 87 86 84 86 84 84 84 86 84 83 84 80 83 81 83 80 80 78 79 80 82 82 82 83 85 89 86 86 86 85 83 81 80 81 83
94 91 89 91 89 86 86 85 86 85 88 85 86 86 84 86 88 80 84 83 84 84 82 81 80 81 79 78 86 82 82 83 83 82 84 88 86 85 84 81 78 81 80
94 90 88 87 86 87 87 85 84 84 85 86 87 82 83 86 87 86 82 84 84 81 80 81 81 78 78 79 77 76 78 82 82 81 83 82 83 85 83 80 78 76 77
92 89 87 86 86 86 87 85 85 84 87 86 88 87 86 84 84 84 81 82 81 80 81 80 79 76 77 79 75 73 71 74 79 82 80 82 81 82 83 82 80 79 77
91 89 87 85 86 85 87 85 84 85 87 85 84 83 86 87 87 84 85 84 82 82 80 79 79 79 75 78 79 74 69 68 73 78 78 77 79 77 79 79 79 79 78
92 92 87 86 85 86 85 84 83 83 83 85 86 85 86 86 86 85 85 84 81 80 78 79 81 78 77 74 77 80 78 76 69 68 74 76 77 78 77 77 77 78 78
95 93 90 86 85 85 85 84 84 84 86 87 86 84 83 84 87 87 85 83 81 80 80 80 78 77 77 76 75 76 76 75 75 71 69 71 75 75 76 76 77 76 78
97 94 91 86 84 85 85 84 83 83 83 85 86 83 83 83 84 85 85 81 81 80 79 80 79 80 78 77 76 76 74 74 72 72 70 71 72 74 77 77 75 75 76
MSLP
1013.76 1013.68 1013.64 1013.76 1014.18 1014.55 1014.68 1014.85 1015.16 1015.38 1015.74 1015.78 1015.94 1016.14 1016.22 1016.54 1016.53 1016.80 1016.94 1017.09 1017.20 1017.11 1017.20 1017.26 1017.36 1017.39 1017.38 1017.43 1017.40 1017.44 1017.49 1017.49 1017.54 1017.58 1017.47 1017.47 1017.54 1017.66 1017.74 1017.72 1017.79 1018.03 1018.34
1013.44 1013.73 1013.93 1014.17 1014.48 1014.72 1015.03 1015.16 1015.42 1015.68 1015.93 1016.12 1016.29 1016.39 1016.52 1016.73 1016.76 1016.98 1017.11 1017.26 1017.28 1017.28 1017.32 1017.35 1017.34 1017.45 1017.50 1017.47 1017.52 1017.59 1017.53 1017.35 1017.52 1017.51 1017.53 1017.71 1017.71 1017.82 1017.88 1017.81 1017.65 1018.18 1018.51
1013.12 1013.77 1014.08 1014.45 1014.75 1015.03 1015.27 1015.35 1015.66 1015.93 1016.14 1016.36 1016.56 1016.57 1016.85 1016.89 1017.05 1017.15 1017.18 1017.35 1017.37 1017.45 1017.47 1017.45 1017.42 1017.40 1017.41 1017.39 1017.44 1017.42 1017.32 1017.08 1017.22 1017.40 1017.66 1017.60 1017.83 1017.84 1018.07 1018.12 1018.26 1018.43 1018.67
1012.61 1013.40 1014.03 1014.63 1014.98 1015.17 1015.28 1015.51 1015.91 1016.11 1016.43 1016.65 1016.72 1016.86 1016.98 1017.15 1017.25 1017.31 1017.37 1017.49 1017.50 1017.61 1017.62 1017.59 1017.55 1017.47 1017.44 1017.37 1017.38 1017.33 1017.25 1017.12 1017.10 1017.38 1017.24 1017.42 1017.51 1017.99 1018.28 1018.40 1018.62 1018.73 1018.95
1012.62 1013.41 1014.38 1014.84 1015.05 1015.26 1015.49 1015.80 1016.14 1016.43 1016.62 1016.74 1016.89 1016.96 1017.11 1017.21 1017.26 1017.37 1017.51 1017.53 1017.59 1017.64 1017.60 1017.62 1017.62 1017.58 1017.48 1017.42 1017.49 1017.47 1017.41 1017.22 1017.32 1017.19 1016.97 1017.24 1017.51 1018.08 1018.41 1018.59 1018.72 1019.00 1019.04
1012.85 1013.73 1014.57 1014.82 1015.15 1015.45 1015.71 1016.11 1016.36 1016.57 1016.71 1016.85 1016.92 1017.05 1017.12 1017.19 1017.33 1017.48 1017.59 1017.58 1017.59 1017.50 1017.48 1017.49 1017.50 1017.58 1017.55 1017.51 1017.48 1017.45 1017.44 1017.23 1017.20 1016.99 1017.21 1017.30 1017.74 1018.19 1018.38 1018.66 1018.92 1019.13 1019.37
1012.97 1013.83 1014.50 1014.98 1015.32 1015.61 1015.91 1016.20 1016.42 1016.65 1016.79 1016.89 1016.99 1017.14 1017.24 1017.33 1017.48 1017.52 1017.55 1017.52 1017.55 1017.51 1017.52 1017.49 1017.53 1017.56 1017.55 1017.45 1017.34 1017.27 1017.25 1017.09 1016.99 1016.86 1016.64 1017.32 1017.96 1018.42 1018.67 1018.90 1019.23 1019.40 1019.57
1012.78 1013.60 1014.61 1015.17 1015.49 1015.76 1015.99 1016.27 1016.49 1016.69 1016.83 1016.92 1017.07 1017.21 1017.29 1017.42 1017.49 1017.53 1017.46 1017.55 1017.62 1017.60 1017.54 1017.46 1017.45 1017.53 1017.51 1017.37 1017.14 1016.92 1016.89 1016.78 1016.47 1016.83 1017.00 1017.53 1018.15 1018.51 1018.88 1019.13 1019.45 1019.57 1019.82
1012.45 1013.45 1014.46 1015.01 1015.48 1015.84 1016.11 1016.34 1016.57 1016.73 1016.83 1017.00 1017.17 1017.34 1017.61 1017.85 1017.74 1017.54 1017.54 1017.59 1017.61 1017.60 1017.52 1017.49 1017.51 1017.51 1017.41 1017.22 1016.99 1016.67 1016.55 1016.23 1015.49 1015.50 1016.03 1017.48 1018.23 1018.57 1018.94 1019.22 1019.52 1019.76 1019.97
1012.65 1013.25 1014.04 1014.74 1015.21 1015.70 1016.10 1016.33 1016.58 1016.73 1016.88 1017.04 1017.21 1017.56 1017.91 1017.82 1017.92 1017.88 1017.53 1017.54 1017.49 1017.51 1017.58 1017.47 1017.44 1017.43 1017.30 1017.03 1017.05 1017.34 1017.49 1015.97 1015.47 1014.37 1016.12 1016.98 1018.00 1018.48 1018.90 1019.29 1019.56 1019.83 1020.12
1012.20 1012.85 1013.50 1014.28 1014.79 1015.16 1015.70 1016.22 1016.58 1016.77 1016.89 1017.02 1017.19 1017.61 1017.35 1017.12 1017.22 1017.30 1017.26 1017.20 1017.25 1017.50 1017.56 1017.77 1017.54 1017.45 1017.15 1016.89 1017.08 1017.98 1018.54 1017.19 1017.30 1016.90 1015.72 1016.66 1017.86 1018.36 1018.79 1019.24 1019.45 1019.82 1020.14
1012.09 1012.86 1013.30 1013.59 1014.19 1014.62 1014.84 1015.99 1016.32 1016.45 1016.56 1016.64 1016.70 1017.02 1017.05 1017.06 1017.32 1016.88 1016.75 1017.05 1017.19 1017.55 1017.69 1017.59 1017.63 1017.44 1017.32 1016.73 1016.98 1017.51 1017.73 1015.97 1017.00 1016.84 1015.21 1017.00 1017.75 1018.26 1018.72 1019.14 1019.37 1019.63 1020.01
1011.87 1012.40 1012.83 1013.28 1013.71 1014.07 1014.70 1015.45 1015.51 1015.59 1015.63 1015.82 1015.97 1016.38 1016.48 1016.30 1016.25 1016.28 1016.59 1016.84 1017.02 1017.30 1017.41 1017.43 1017.44 1017.01 1017.09 1016.59 1016.68 1016.94 1016.42 1015.59 1016.52 1017.08 1015.33 1017.33 1017.86 1018.13 1018.46 1018.97 1019.30 1019.52 1019.83
1011.37 1011.67 1012.35 1012.97 1013.43 1013.97 1014.35 1014.58 1014.49 1014.67 1014.76 1015.16 1015.32 1015.76 1016.13 1016.17 1016.06 1016.04 1016.59 1016.54 1016.82 1017.07 1016.98 1017.20 1017.56 1018.05 1016.88 1016.52 1016.20 1016.28 1016.13 1015.86 1015.89 1015.76 1016.63 1017.34 1017.83 1017.96 1018.30 1018.70 1019.07 1019.32 1019.70
1011.07 1011.26 1012.13 1012.62 1013.18 1013.49 1013.80 1013.77 1013.89 1014.09 1014.32 1014.39 1015.08 1015.49 1015.69 1015.93 1016.07 1015.91 1016.18 1016.40 1016.66 1016.66 1016.85 1016.97 1017.05 1017.06 1017.20 1016.69 1016.36 1016.33 1016.33 1016.30 1016.13 1016.53 1017.25 1017.57 1017.54 1017.67 1018.11 1018.48 1018.81 1019.15 1019.41
1010.37 1010.69 1011.39 1012.28 1013.05 1013.39 1013.81 1013.90 1014.01 1014.00 1014.27 1014.45 1014.70 1015.37 1015.56 1015.73 1016.06 1016.34 1016.34 1016.49 1016.56 1016.79 1016.79 1016.78 1016.98 1017.03 1016.82 1016.50 1016.53 1016.39 1016.33 1016.19 1016.24 1016.34 1016.74 1017.26 1017.38 1017.40 1017.70 1018.14 1018.58 1018.87 1019.17
1009.92 1010.37 1011.09 1012.00 1012.84 1013.50 1013.86 1013.91 1014.18 1014.14 1014.19 1014.74 1014.87 1015.39 1015.36 1015.80 1015.99 1016.26 1016.51 1016.48 1016.31 1016.63 1016.62 1016.83 1017.00 1016.83 1016.85 1016.44 1016.46 1016.11 1016.11 1016.08 1016.11 1016.36 1016.54 1016.72 1017.24 1017.29 1017.32 1017.76 1018.26 1018.54 1018.87
1009.52 1010.14 1010.84 1011.48 1012.27 1013.16 1013.73 1013.87 1014.17 1014.22 1014.44 1014.61 1014.97 1015.00 1015.36 1015.67 1016.13 1016.42 1016.57 1016.42 1016.38 1016.52 1016.62 1016.83 1017.07 1017.00 1016.94 1016.51 1016.28 1016.16 1016.15 1016.08 1015.98 1016.04 1016.31 1016.42 1016.54 1016.95 1017.41 1017.63 1017.94 1018.42 1018.67
1009.12 1009.93 1010.71 1011.23 1011.71 1012.60 1013.25 1013.63 1013.89 1013.96 1014.19 1014.44 1014.77 1014.84 1015.17 1015.47 1015.86 1016.30 1016.06 1016.17 1016.23 1016.38 1016.44 1016.79 1016.89 1017.02 1016.92 1016.78 1016.50 1016.05 1016.20 1016.19 1015.98 1015.80 1016.07 1016.19 1016.26 1016.39 1017.04 1017.55 1017.83 1017.90 1018.19
1008.60 1009.54 1010.32 1010.94 1011.39 1012.08 1012.76 1013.31 1013.62 1013.84 1014.07 1014.15 1014.27 1014.32 1014.86 1015.11 1015.33 1015.93 1015.84 1015.73 1015.97 1016.06 1016.43 1016.89 1017.04 1017.08 1017.17 1017.14 1016.74 1016.68 1016.45 1016.44 1016.24 1016.39 1016.16 1016.08 1016.47 1016.67 1016.83 1017.43 1017.78 1017.97 1018.32
1008.08 1009.02 1009.87 1010.59 1011.12 1011.74 1012.26 1013.00 1013.51 1013.86 1013.99 1014.02 1013.85 1014.22 1014.80 1014.87 1015.16 1015.54 1015.86 1015.94 1015.85 1016.17 1016.72 1016.79 1017.04 1017.30 1017.12 1016.98 1016.95 1016.83 1016.76 1016.55 1016.59 1016.56 1016.37 1016.60 1016.66 1016.84 1016.97 1017.62 1017.87 1018.24 1018.51
1007.49 1008.46 1009.41 1010.16 1010.80 1011.36 1011.98 1012.52 1013.12 1013.31 1013.24 1013.30 1013.22 1013.48 1013.95 1014.58 1014.92 1015.32 1015.65 1015.82 1015.92 1016.08 1016.48 1016.95 1017.23 1017.47 1017.17 1016.97 1017.25 1017.02 1016.80 1016.93 1016.67 1016.62 1016.88 1017.06 1017.33 1017.10 1017.33 1017.51 1018.02 1018.48 1018.74
1006.71 1007.72 1008.72 1009.73 1010.49 1011.16 1011.63 1012.27 1012.75 1013.01 1012.81 1012.75 1013.18 1013.65 1013.81 1013.92 1014.40 1014.80 1015.18 1015.50 1015.93 1016.06 1016.52 1017.01 1017.26 1017.37 1017.41 1017.30 1017.16 1017.45 1017.24 1017.33 1017.13 1016.92 1017.14 1017.32 1017.50 1017.51 1017.63 1017.85 1018.10 1018.36 1018.46
1005.87 1007.00 1008.20 1009.14 1010.06 1010.79 1011.42 1011.94 1012.11 1012.37 1012.48 1012.54 1012.81 1012.98 1013.36 1013.73 1014.07 1014.46 1014.86 1015.24 1015.76 1016.25 1016.53 1016.84 1017.08 1017.45 1017.49 1017.61 1017.37 1017.20 1017.37 1017.57 1017.61 1017.74 1017.65 1017.60 1017.54 1017.70 1017.84 1017.92 1018.20 1018.41 1018.41
1005.05 1006.19 1007.33 1008.47 1009.42 1010.15 1010.86 1011.32 1011.68 1011.86 1012.11 1012.23 1012.34 1012.80 1013.24 1013.51 1013.64 1014.09 1014.61 1015.13 1015.87 1016.19 1016.40 1016.70 1017.11 1017.50 1017.69 1017.56 1017.63 1017.32 1017.52 1017.50 1017.58 1017.72 1017.82 1017.73 1017.61 1017.57 1017.65 1017.70 1017.85 1018.23 1018.22
1003.88 1005.10 1006.32 1007.57 1008.64 1009.43 1010.30 1010.88 1011.30 1011.51 1011.71 1011.87 1012.03 1012.57 1012.99 1013.36 1013.80 1014.11 1014.52 1015.08 1015.53 1015.97 1016.25 1016.65 1017.10 1017.42 1017.57 1017.64 1017.71 1017.63 1017.53 1017.51 1017.51 1017.60 1017.70 1017.58 1017.44 1017.35 1017.20 1017.34 1017.62 1017.72 1017.90
Wind_Speed
6 11 17 20 19 17 17 17 17 17 16 17 16 16 16 14 16 14 14 13 12 12 12 12 12 12 12 11 11 10 9 6 8 8 9 10 10 9 8 5 2 12 13
15 14 18 18 18 16 15 16 15 15 16 16 15 15 15 14 14 13 12 12 11 12 12 11 12 12 12 11 10 8 6 3 4 7 8 9 10 11 9 12 18 13 13
18 16 16 16 16 15 14 15 14 15 15 14 13 14 13 14 13 12 12 11 11 11 11 10 10 11 11 10 9 7 5 3 0 2 7 5 7 13 11 12 14 13 13
18 17 16 13 14 14 14 14 13 14 13 12 13 13 13 12 12 12 11 10 10 9 9 9 10 10 10 9 8 7 5 4 6 5 4 6 10 12 12 13 12 13 12
13 16 13 14 14 14 14 13 12 12 12 12 11 11 11 11 12 11 9 9 8 7 8 9 9 9 9 8 6 5 4 4 6 6 3 6 8 11 11 11 12 10 10
16 16 14 14 14 13 14 13 12 12 11 10 10 11 10 10 10 9 8 7 6 6 7 7 8 8 8 6 5 4 3 4 7 4 2 13 9 12 11 7 12 12 12
15 15 13 14 13 13 13 12 12 12 10 9 10 9 9 9 7 7 5 5 4 5 6 7 8 8 7 4 3 1 1 3 4 5 5 11 10 11 11 11 10 11 11
16 16 14 13 13 12 14 13 12 11 10 9 8 8 7 6 5 4 3 3 4 4 5 7 6 6 5 2 1 4 2 4 3 7 6 9 12 12 11 10 9 10 10
17 16 12 13 13 13 13 12 11 10 9 7 6 5 4 4 5 5 4 3 3 4 5 5 5 3 2 1 4 7 4 4 7 8 12 8 13 13 12 11 9 9 8
15 16 13 12 11 11 10 12 10 9 7 6 4 4 3 4 7 8 7 5 2 1 3 4 3 3 4 6 7 6 5 8 4 10 7 8 15 14 12 9 10 9 11
14 15 14 14 12 11 11 9 8 7 7 5 5 6 6 3 7 12 7 8 4 3 2 5 6 5 6 10 10 4 12 6 6 4 5 16 15 14 13 12 10 10 9
14 14 13 13 12 12 11 10 8 8 7 7 7 7 7 8 10 9 5 5 2 2 3 8 6 11 11 6 2 3 10 11 8 2 5 14 15 15 14 12 12 11 10
15 11 15 13 12 12 10 7 6 6 6 7 9 7 6 2 1 1 3 1 3 6 5 7 2 1 10 3 3 3 4 3 6 4 8 11 13 16 14 14 13 12 12
13 13 15 11 9 10 7 8 8 8 7 6 7 5 1 2 4 2 3 3 3 3 3 2 3 7 5 6 5 6 8 6 2 3 6 14 15 14 13 13 13 13 13
15 15 19 14 8 5 4 4 3 2 3 4 7 8 4 4 2 2 3 3 2 3 2 2 2 4 3 4 2 2 3 2 5 5 5 13 13 14 13 13 14 13 13
16 12 14 13 9 5 4 1 3 2 2 3 2 7 5 2 3 2 2 2 3 2 1 3 3 2 4 3 4 3 5 4 3 2 3 6 11 14 15 14 14 14 14
12 12 13 13 14 9 6 4 3 4 2 3 3 5 8 4 2 2 3 3 3 1 2 4 2 4 4 4 5 3 2 5 3 3 2 1 7 12 14 14 13 13 13
14 12 11 13 16 13 8 5 5 7 3 2 2 5 5 7 3 1 4 6 3 1 2 3 4 3 4 1 3 3 0 2 4 5 4 4 4 7 9 13 11 10 12
14 12 12 11 13 15 10 7 8 6 4 3 4 4 5 6 7 4 5 1 0 2 1 3 3 2 4 4 5 3 2 3 3 4 5 3 2 3 7 11 12 14 14
16 14 13 10 7 14 10 7 3 3 1 4 6 4 3 3 3 5 5 1 1 2 1 2 1 4 2 4 5 6 2 2 4 0 2 2 1 8 8 6 4 4 8
16 14 13 11 9 8 7 7 5 5 5 6 5 9 9 4 3 2 4 2 3 4 4 3 3 4 4 2 3 4 4 3 4 1 5 5 5 5 6 7 5 4 3
15 16 15 13 10 8 6 5 7 9 9 9 6 4 5 6 6 6 6 5 6 3 3 5 2 2 3 4 1 3 1 1 0 3 5 5 4 4 6 6 7 5 4
18 17 15 14 11 10 8 7 5 5 4 1 6 5 8 6 6 6 5 3 5 3 5 4 3 1 3 0 2 1 4 1 1 2 4 4 1 4 4 6 5 4 2
17 16 16 16 15 12 13 8 9 7 4 3 4 5 8 8 7 8 6 5 5 3 5 4 3 2 1 3 2 2 2 1 2 2 2 4 3 4 2 0 5 3 1
18 18 17 17 16 15 13 11 7 7 7 5 4 7 7 5 4 7 6 6 5 1 5 5 5 2 3 3 4 1 1 2 3 1 1 2 1 4 5 4 5 5 3
19 19 19 20 18 16 15 14 11 10 8 4 5 7 4 6 4 4 7 7 6 4 5 4 3 2 2 2 3 4 2 1 1 1 1 2 1 4 5 5 5 4 5
Wind_Direction
141 119 119 119 118 113 105 102 104 105 100 95 95 95 94 95 93 95 97 94 92 89 85 82 79 77 76 79 79 84 85 100 106 106 98 98 91 74 76 42 145 101 100
127 121 119 120 118 112 103 103 103 103 101 99 98 99 100 99 96 100 98 97 93 85 81 77 76 74 73 73 78 84 90 126 117 112 117 117 99 89 78 53 90 103 98
125 126 117 115 116 116 115 110 106 106 104 105 103 98 102 96 98 99 94 92 89 85 81 75 69 69 68 70 74 75 70 330 265 158 153 155 103 98 89 82 100 105 97
137 124 120 121 120 116 116 114 117 112 111 110 101 99 97 98 96 93 91 89 84 80 75 70 65 61 61 59 60 70 59 326 312 311 242 197 98 103 103 101 102 107 103
119 107 119 123 121 120 121 122 122 121 118 106 106 104 102 100 98 96 94 85 80 77 67 58 58 57 57 58 52 50 61 339 333 310 18 105 93 108 110 113 108 111 113
123 118 128 126 125 124 126 130 130 124 118 114 112 112 108 105 103 102 94 89 87 70 59 51 51 56 57 51 47 41 27 326 326 306 96 89 85 115 117 121 103 112 112
122 127 129 134 132 129 131 134 130 132 127 122 120 113 107 103 107 107 105 98 83 61 43 37 40 51 63 58 33 356 358 293 305 290 107 103 113 116 112 113 116 121 116
140 133 140 139 135 139 137 135 136 135 132 126 126 124 121 127 134 137 113 73 47 36 24 23 25 42 60 74 316 282 271 276 192 67 84 100 125 127 123 126 127 129 131
136 130 136 139 146 146 139 141 138 136 134 140 141 143 149 172 188 184 149 110 39 13 11 14 12 13 20 209 228 256 279 283 255 158 125 122 134 137 136 134 138 144 136
128 135 144 144 155 156 155 146 139 141 148 156 172 181 188 231 255 241 182 169 155 255 342 336 325 306 301 278 258 257 334 293 243 10 118 130 147 145 145 143 146 151 145
150 137 151 153 156 156 151 157 156 159 172 190 208 213 217 161 260 226 152 163 165 178 291 311 294 293 287 266 265 279 354 303 66 260 128 144 152 153 154 155 153 158 156
143 153 167 152 166 163 156 145 181 181 192 198 203 180 212 171 219 192 181 177 202 150 123 282 317 332 296 285 272 210 209 256 112 185 94 157 160 154 159 164 167 166 170
166 171 173 163 163 177 130 169 185 186 194 199 204 178 242 25 247 147 149 144 181 196 198 208 265 313 256 269 247 279 306 334 153 176 134 170 171 160 165 170 176 178 185
169 182 180 153 171 129 156 177 195 186 194 194 184 155 224 256 250 338 118 154 211 144 235 203 136 259 268 302 15 336 351 16 43 108 139 180 176 165 172 180 182 187 190
179 201 152 152 158 177 211 197 187 180 211 178 147 174 195 227 297 216 49 14 17 338 32 176 29 41 344 293 288 304 328 335 6 104 147 178 172 164 178 190 192 195 197
180 186 144 146 149 180 214 276 344 286 94 334 178 156 175 216 21 31 21 294 269 335 154 39 46 306 277 280 266 241 259 279 58 347 117 177 185 173 177 189 193 201 205
176 172 158 163 156 173 207 180 261 294 227 193 299 137 171 170 134 304 323 304 286 136 23 95 281 259 286 282 268 177 311 329 21 37 2 284 180 194 186 192 201 200 206
175 174 171 188 166 172 184 190 201 234 192 286 236 174 216 131 187 158 258 241 358 344 90 134 243 284 275 305 335 270 236 316 250 199 193 230 170 172 195 193 189 204 212
179 176 178 190 180 167 181 194 204 243 177 199 242 167 174 177 176 211 254 221 329 112 334 338 347 291 4 353 298 254 161 234 280 136 163 179 267 174 163 187 194 203 207
178 174 176 189 203 166 176 187 183 221 206 199 203 181 162 180 161 176 270 118 108 347 26 148 277 23 310 263 317 340 351 3 350 48 203 155 238 79 115 156 193 212 209
177 174 178 184 185 163 163 178 183 223 210 238 252 143 174 165 189 199 269 283 226 207 181 172 48 342 269 78 355 280 221 170 233 311 49 49 12 75 91 84 83 63 98
183 178 175 184 179 179 178 179 191 210 213 209 211 157 153 171 180 176 216 209 215 116 127 79 64 332 302 106 320 324 218 269 262 121 87 80 13 355 75 68 80 63 147
182 178 178 179 183 180 195 176 215 254 244 171 143 167 184 178 198 176 174 126 89 10 110 132 166 251 322 352 106 295 1 342 260 111 123 104 136 44 63 93 71 73 20
186 179 175 177 182 182 198 192 204 195 231 180 203 203 158 172 201 157 179 163 96 41 127 142 142 56 302 331 220 117 103 220 9 48 30 145 153 128 112 197 142 149 244
187 181 176 178 183 184 194 204 210 207 193 231 188 119 139 144 177 152 141 123 112 207 117 116 117 120 321 312 336 106 87 234 145 199 204 230 235 157 168 193 133 157 173
190 184 183 176 184 187 187 199 217 189 224 199 175 147 156 157 172 165 155 130 150 194 139 135 108 103 56 344 355 333 298 328 132 309 313 339 106 225 178 175 154 197 164